[[{"header":{"parameterUnit":"m.s-1","parameterCategory":1,"la1":30.2991,"la2":30.254,"lo1":-89.0895,"lo2":-89.0444,"dy":0.0017,"dx":0.0017,"nx":28,"ny":28,"refTime":"2023-11-12T09:00:00:Z","depth":0,"parameterNumber":2,"parameterNumberName":"U-component_of_WINDS"},"data":[0,0,0,0,0,0,0,0,0,0,0,0,0,0,0,0,0,0,0,0,0,0,0,0,0,0,0,0,0,0,0,0,0,0,0,0,0,0,0,0,0,0,0,0,0,0,0,0,0,0,0,0,0,0,0,0,0,0,-4.0187,-4.0187,0,-4.0244,-4.0245,-4.0245,-4.0137,-4.0133,-4.013,-4.0126,-4.0187,-4.0192,-4.0197,0,0,0,0,0,0,0,0,0,0,0,0,0,-3.9984,-3.9988,-4.0186,-4.0187,-4.0188,-4.0244,-4.0245,-4.0246,-4.0137,-4.0133,-4.0129,-4.0125,-4.0185,-4.0191,-4.0197,0,0,0,0,0,0,0,0,0,0,0,0,0,-4.006,-3.9989,-4.0186,-4.0141,-4.0137,-4.0244,-4.0245,-4.0246,-4.0138,-4.0133,-4.0128,-4.0123,-4.0183,-4.0191,-4.0198,-4.0352,0,0,-4.0221,-4.0224,0,0,0,0,0,0,0,0,-4.0056,-4.0067,-4.0147,-4.0144,-4.014,-4.0178,-4.0195,-4.0282,-4.014,-4.0138,-4.0126,-4.012,-4.0188,-4.0195,-4.0218,-4.0355,-4.0358,-4.0221,-4.0226,-4.0229,-4.0231,0,0,0,0,0,0,0,-4.005,-4.0064,-4.0209,-4.0148,-4.0144,-4.0118,-4.0122,-4.0211,-4.0193,-4.0138,-4.013,-4.0138,-4.0186,-4.0211,-4.0218,-4.0359,-4.0221,-4.0228,-4.0232,-4.0235,-4.0626,-4.0631,0,0,0,0,0,0,-4.0051,-4.0061,-4.0207,-4.0211,-4.0084,-4.0126,-4.0131,-4.0171,-4.0192,-4.0189,-4.0143,-4.0133,-4.0201,-4.021,-4.022,-4.0403,-4.0229,-4.0236,-4.024,-4.062,-4.0627,-4.0634,0,0,0,0,0,0,-4.0047,-4.0065,-4.0205,-4.0134,-4.0149,-4.0135,-4.0181,-4.0175,-4.02,-4.0195,-4.0192,-4.0172,-4.0197,-4.021,-4.032,-4.0403,-4.0239,-4.0246,-4.0613,-4.0622,-4.063,-4.077,0,0,0,0,0,0,-4.0041,-4.0064,-4.0122,-4.0136,-4.0154,-4.0305,-4.0186,-4.018,-4.0213,-4.0201,-4.0222,-4.022,-4.0194,-4.031,-4.0328,-4.0411,-4.0252,-4.0606,-4.0617,-4.0628,-4.0758,-4.0782,-4.0803,0,0,0,0,0,-4.0035,-4.016,-4.0126,-4.0144,-4.0226,-4.0309,-4.032,-4.0286,-4.022,-4.0279,-4.0276,-4.0219,-4.0391,-4.0322,-4.0341,-4.0428,-4.06,-4.0614,-4.0627,-4.0747,-4.0777,-4.0803,0,0,0,0,0,0,-4.0157,-4.016,-4.0123,-4.0256,-4.0283,-4.0291,-4.0364,-4.0319,-4.0366,-4.0352,-4.0309,-4.0315,-4.0434,-4.0442,-4.0365,-4.0578,-4.0485,-4.0502,-4.057,-4.0598,-4.062,-4.0617,-4.0258,0,0,0,0,0,-4.0199,-4.0266,-4.0265,-4.0383,-4.0398,-4.0379,-4.0414,-4.0386,-4.0412,-4.0424,-4.0428,-4.0457,-4.0517,-4.0557,-4.0612,-4.0757,-4.0761,-4.0826,-4.0849,-4.0868,-4.0884,-4.0962,-4.0992,-4.0677,-4.0677,-4.0677,0,0,-4.0288,-4.0298,-4.0343,-4.0408,-4.0425,-4.0496,-4.039,-4.0469,-4.0521,-4.0435,-4.0541,-4.0545,-4.0574,-4.0703,-4.0759,-4.0712,-4.0972,-4.0885,-4.09,-4.0906,-4.0979,-4.1009,-4.1035,-4.0686,-4.0684,-4.0683,0,0,-4.0485,-4.0499,-4.0599,-4.0619,-4.0647,-4.0633,-4.0657,-4.0671,-4.0671,-4.0775,-4.0713,-4.0774,-4.0879,-4.0902,-4.0928,-4.1134,-4.1084,-4.1153,-4.1273,-4.1349,-4.1374,-4.1396,-4.1471,-4.1498,-4.1169,-4.1169,-4.1169,0,-4.0592,-4.0696,-4.0656,-4.074,-4.0771,-4.0696,-4.0797,-4.0818,-4.0863,-4.0886,-4.0832,-4.0962,-4.0976,-4.1109,-4.116,-4.1182,-4.1209,-4.1151,-4.1373,-4.1395,-4.1415,-4.1486,-4.1514,-4.1177,-4.1176,-4.1176,-4.1175,0,-4.0826,-4.0899,-4.0976,-4.1021,-4.106,-4.1153,-4.1127,-4.1172,-4.114,-4.1132,-4.124,-4.1253,-4.131,-4.1339,-4.1309,-4.1469,-4.1439,-4.138,-4.1285,-4.1454,-4.152,-4.1546,-4.1189,-4.1186,-4.1184,-4.1182,0,0,-4.1104,-4.1125,-4.1155,-4.1174,-4.1199,-4.1255,-4.1344,-4.1399,-4.1438,-4.1471,-4.1545,-4.1635,-4.1581,-4.161,-4.1581,-4.1648,-4.1812,-4.1581,-4.1581,-4.1625,-4.1991,-4.2036,-4.2068,-4.1778,-4.1783,-4.1787,-4.1989,0,-4.1301,-4.1454,-4.1421,-4.1571,-4.1638,-4.1568,-4.1645,-4.1669,-4.1664,-4.172,-4.1714,-4.1779,-4.1702,-4.1719,-4.1782,-4.1779,-4.1885,-4.1764,-4.1848,-4.1852,-4.1845,-4.2102,-4.2151,-4.234,-4.2014,-4.2018,-4.2021,0,-4.1552,-4.1595,-4.1752,-4.1766,-4.1793,-4.1864,-4.1911,-4.1966,-4.1992,-4.1983,-4.2016,-4.1974,-4.2063,-4.1965,-4.2087,-4.2005,-4.2037,-4.2041,-4.2048,-4.2056,-4.1948,-4.2119,-4.2399,-4.2429,-4.2061,-4.2058,-4.2055,0,-4.1741,-4.1837,-4.1944,-4.1963,-4.1982,-4.2033,-4.2043,-4.2063,-4.2099,-4.2141,-4.2163,-4.2215,-4.2244,-4.2285,-4.2259,-4.2191,-4.2386,-4.2286,-4.2382,-4.2384,-4.2428,-4.2426,-4.272,-4.2447,-4.2446,-4.2446,-4.2445,0,-4.1966,-4.2065,-4.2029,-4.2095,-4.2205,-4.2165,-4.2274,-4.2276,-4.2295,-4.236,-4.2301,-4.2364,-4.2325,-4.2385,-4.2364,-4.2469,-4.2482,-4.2478,-4.2472,-4.2485,-4.2486,-4.2507,-4.2494,-4.2453,-4.2451,-4.245,-4.2449,0,-4.2196,-4.2176,-4.2288,-4.2296,-4.2301,-4.2381,-4.2388,-4.245,-4.244,-4.2523,-4.2541,-4.2525,-4.2592,-4.257,-4.2642,-4.2628,-4.2762,-4.2738,-4.2754,-4.2748,-4.2846,-4.2838,-4.3165,-4.3206,-4.2905,-4.2908,-4.291,0,-4.2342,-4.2417,-4.2433,-4.2473,-4.2487,-4.2551,-4.2587,-4.2551,-4.259,-4.2625,-4.2683,-4.2745,-4.2792,-4.2903,-4.2899,-4.2954,-4.2931,-4.3042,-4.2939,-4.295,-4.2935,-4.2932,-4.2939,-4.3063,-4.3067,-4.307,-4.3072,0,-4.2604,-4.259,-4.2643,-4.2694,-4.2738,-4.2776,-4.2809,-4.2844,-4.281,-4.2857,-4.2925,-4.2962,-4.3035,-4.3098,-4.3147,-4.3158,-4.3111,-4.3104,-4.3129,-4.3144,-4.3151,-4.315,-4.2811,-4.3097,-4.3095,-4.3093,-4.3091,-4.309,-4.2797,-4.286,-4.2882,-4.2944,-4.2964,-4.2996,-4.3055,-4.3052,-4.3107,-4.3164,-4.3139,-4.3218,-4.3241,-4.3303,-4.332,-4.3381,-4.3339,-4.3375,-4.3385,-4.3395,-4.3408,-4.314,-4.339,-4.3389,-4.3389,-4.3388,-4.3387,0,-4.3057,-4.3067,-4.3124,-4.3172,-4.322,-4.3169,-4.3203,-4.3247,-4.3317,-4.3343,-4.3391,-4.3469,-4.3529,-4.3529,-4.3586,-4.3635,-4.3614,-4.3651,-4.3648,-4.3651,-4.3442,-4.3416,-4.3667,-4.3667,-4.3666,-4.3666,-4.3666,-4.3666,-4.3198,-4.3303,-4.3291,-4.3406,-4.3415,-4.3492,-4.3515,-4.3545,-4.3565,-4.3655,-4.3705,-4.3704,-4.372,-4.3776,-4.383,-4.3828,-4.3852,-4.3898,-4.3888,-4.3694,-4.3666,-4.364,-4.3614,-4.3903,-4.3903,-4.4092,-4.4094,-4.4095]},{"header":{"parameterUnit":"m.s-1","parameterCategory":1,"la1":30.2991,"la2":30.254,"lo1":-89.0895,"lo2":-89.0444,"dy":0.0017,"dx":0.0017,"nx":28,"ny":28,"refTime":"2023-11-12T09:00:00:Z","depth":0,"parameterNumber":3,"parameterNumberName":"V-component_of_WINDS"},"data":[0,0,0,0,0,0,0,0,0,0,0,0,0,0,0,0,0,0,0,0,0,0,0,0,0,0,0,0,0,0,0,0,0,0,0,0,0,0,0,0,0,0,0,0,0,0,0,0,0,0,0,0,0,0,0,0,0,0,-4.2295,-4.2295,0,-4.2291,-4.2291,-4.2291,-4.2234,-4.2233,-4.2231,-4.223,-4.2227,-4.2228,-4.2229,0,0,0,0,0,0,0,0,0,0,0,0,0,-4.2252,-4.2253,-4.2295,-4.2295,-4.2295,-4.2291,-4.2291,-4.2291,-4.2234,-4.2233,-4.2231,-4.2229,-4.2227,-4.2228,-4.223,0,0,0,0,0,0,0,0,0,0,0,0,0,-4.2262,-4.2253,-4.2295,-4.2266,-4.2263,-4.2291,-4.2291,-4.2291,-4.2235,-4.2233,-4.223,-4.2228,-4.2226,-4.2228,-4.223,-4.2285,0,0,-4.2236,-4.2236,0,0,0,0,0,0,0,0,-4.2261,-4.2263,-4.227,-4.2268,-4.2265,-4.2261,-4.2275,-4.2289,-4.2235,-4.2246,-4.223,-4.2227,-4.224,-4.2241,-4.2245,-4.2285,-4.2285,-4.2236,-4.2237,-4.2238,-4.2238,0,0,0,0,0,0,0,-4.226,-4.2263,-4.2293,-4.227,-4.2267,-4.2253,-4.2252,-4.2277,-4.2255,-4.2245,-4.224,-4.2241,-4.2238,-4.2243,-4.2244,-4.2285,-4.2236,-4.2237,-4.2239,-4.2239,-4.2369,-4.2371,0,0,0,0,0,0,-4.2264,-4.2263,-4.2293,-4.2293,-4.2258,-4.2256,-4.2254,-4.2264,-4.2255,-4.2251,-4.2243,-4.2238,-4.2241,-4.2242,-4.2244,-4.2307,-4.2238,-4.224,-4.2241,-4.2367,-4.237,-4.2372,0,0,0,0,0,0,-4.2263,-4.2267,-4.2294,-4.2277,-4.2279,-4.2259,-4.227,-4.2266,-4.227,-4.2253,-4.2249,-4.2252,-4.2239,-4.2241,-4.2275,-4.2306,-4.224,-4.2242,-4.2364,-4.2368,-4.2371,-4.2435,0,0,0,0,0,0,-4.2262,-4.2267,-4.2288,-4.2278,-4.228,-4.2325,-4.2272,-4.2267,-4.2274,-4.2268,-4.2261,-4.2257,-4.2238,-4.2273,-4.2277,-4.2308,-4.2244,-4.2361,-4.2366,-4.237,-4.243,-4.244,-4.2449,0,0,0,0,0,-4.2261,-4.2307,-4.229,-4.2294,-4.2306,-4.2327,-4.2328,-4.2305,-4.2277,-4.2297,-4.2286,-4.2258,-4.2302,-4.2276,-4.2281,-4.2313,-4.2359,-4.2364,-4.2369,-4.2425,-4.2438,-4.2448,0,0,0,0,0,0,-4.2322,-4.2305,-4.2286,-4.233,-4.233,-4.2317,-4.2343,-4.2319,-4.2327,-4.2321,-4.2292,-4.2291,-4.2329,-4.2324,-4.2296,-4.2365,-4.2326,-4.2332,-4.2367,-4.2378,-4.2388,-4.2387,-4.2245,0,0,0,0,0,-4.234,-4.2359,-4.2343,-4.2383,-4.2384,-4.2364,-4.2372,-4.2353,-4.2353,-4.2353,-4.2344,-4.2345,-4.2358,-4.2368,-4.238,-4.2429,-4.2426,-4.2453,-4.2463,-4.247,-4.2476,-4.25,-4.2511,-4.2389,-4.2389,-4.2389,0,0,-4.2379,-4.2372,-4.2386,-4.2395,-4.2393,-4.2413,-4.2364,-4.2387,-4.2401,-4.2356,-4.2387,-4.2381,-4.2379,-4.242,-4.2438,-4.2418,-4.2509,-4.2477,-4.2483,-4.2485,-4.2506,-4.2518,-4.2528,-4.2393,-4.2392,-4.2391,0,0,-4.2459,-4.2456,-4.2489,-4.2487,-4.2485,-4.2471,-4.2479,-4.2469,-4.2463,-4.2494,-4.246,-4.2476,-4.2501,-4.2501,-4.2504,-4.2583,-4.2557,-4.2588,-4.2637,-4.2661,-4.2671,-4.2679,-4.2706,-4.2716,-4.2594,-4.2594,-4.2594,0,-4.2507,-4.2535,-4.2508,-4.2533,-4.2538,-4.2498,-4.253,-4.253,-4.2532,-4.2536,-4.2514,-4.2543,-4.254,-4.258,-4.2599,-4.2603,-4.2611,-4.2588,-4.2671,-4.2679,-4.2687,-4.2712,-4.2722,-4.2598,-4.2597,-4.2597,-4.2596,0,-4.2594,-4.2613,-4.264,-4.2642,-4.2649,-4.2678,-4.2655,-4.2667,-4.2648,-4.2636,-4.2667,-4.2661,-4.267,-4.2679,-4.2661,-4.2716,-4.2703,-4.2677,-4.2636,-4.2703,-4.2726,-4.2735,-4.2603,-4.2602,-4.2601,-4.26,0,0,-4.2712,-4.2698,-4.2708,-4.2708,-4.2702,-4.2716,-4.2743,-4.2751,-4.2761,-4.2764,-4.2784,-4.2806,-4.2781,-4.2785,-4.2766,-4.2787,-4.2848,-4.2758,-4.2757,-4.2774,-4.2907,-4.2927,-4.2938,-4.2831,-4.2833,-4.2835,-4.2907,0,-4.2788,-4.2832,-4.2808,-4.2855,-4.2872,-4.2834,-4.2856,-4.2855,-4.2844,-4.2857,-4.2846,-4.2861,-4.2827,-4.2829,-4.2849,-4.2837,-4.2875,-4.2832,-4.285,-4.2851,-4.285,-4.2951,-4.2971,-4.304,-4.2916,-4.2918,-4.2919,0,-4.2883,-4.2888,-4.2936,-4.2925,-4.2932,-4.2952,-4.2958,-4.2971,-4.2968,-4.2959,-4.2963,-4.2939,-4.2963,-4.2924,-4.2957,-4.2928,-4.2934,-4.293,-4.2932,-4.2932,-4.2888,-4.2952,-4.3061,-4.3071,-4.2933,-4.2932,-4.2931,0,-4.2962,-4.2982,-4.3013,-4.3014,-4.3003,-4.3018,-4.3014,-4.3009,-4.3015,-4.302,-4.3024,-4.3032,-4.3037,-4.3043,-4.3022,-4.2996,-4.3058,-4.3017,-4.305,-4.3051,-4.3064,-4.3063,-4.3175,-4.307,-4.307,-4.307,-4.307,0,-4.3049,-4.308,-4.3048,-4.3067,-4.31,-4.3073,-4.3106,-4.3098,-4.3094,-4.311,-4.3079,-4.3095,-4.3066,-4.308,-4.3063,-4.3092,-4.3095,-4.3088,-4.3083,-4.309,-4.3091,-4.3093,-4.3087,-4.3073,-4.3072,-4.3072,-4.3071,0,-4.3144,-4.3124,-4.3155,-4.3141,-4.3138,-4.3163,-4.3151,-4.3168,-4.3155,-4.3176,-4.318,-4.3159,-4.3173,-4.3153,-4.3165,-4.3154,-4.3194,-4.3182,-4.3194,-4.3191,-4.3225,-4.3221,-4.334,-4.3354,-4.3242,-4.3243,-4.3244,0,-4.32,-4.3222,-4.321,-4.3219,-4.3216,-4.3231,-4.3236,-4.321,-4.3218,-4.3216,-4.3233,-4.3244,-4.3251,-4.3275,-4.3262,-4.327,-4.3258,-4.3299,-4.3259,-4.3265,-4.3257,-4.3256,-4.3257,-4.3307,-4.3308,-4.331,-4.331,0,-4.3301,-4.3289,-4.3299,-4.3305,-4.3313,-4.3316,-4.3318,-4.3326,-4.3299,-4.3309,-4.3322,-4.3328,-4.3339,-4.3351,-4.3356,-4.3352,-4.3326,-4.3323,-4.3331,-4.3338,-4.3344,-4.334,-4.3215,-4.332,-4.3319,-4.3319,-4.3318,-4.3318,-4.3377,-4.3394,-4.3388,-4.3399,-4.3397,-4.3399,-4.3414,-4.3402,-4.3413,-4.3419,-4.3404,-4.3421,-4.3416,-4.3421,-4.3419,-4.3432,-4.3414,-4.3426,-4.3429,-4.3432,-4.3436,-4.3343,-4.3433,-4.3433,-4.3433,-4.3432,-4.3432,0,-4.3475,-4.3469,-4.348,-4.3482,-4.349,-4.3465,-4.3465,-4.3474,-4.3489,-4.3487,-4.3495,-4.351,-4.352,-4.3508,-4.3516,-4.3528,-4.3517,-4.3531,-4.3529,-4.3529,-4.3453,-4.3444,-4.354,-4.354,-4.354,-4.354,-4.354,-4.354,-4.3527,-4.3555,-4.3543,-4.3569,-4.3562,-4.3578,-4.358,-4.3581,-4.3579,-4.3597,-4.3605,-4.3596,-4.359,-4.3597,-4.3605,-4.3601,-4.3605,-4.3624,-4.3616,-4.3545,-4.3534,-4.3524,-4.3516,-4.3625,-4.3625,-4.369,-4.369,-4.3691]}]]